Location: Guferjoch
(46.7462°N, 8.4506°E)
Time: 22:53:09
(UTC+00:00)

Cosmos 1818 - Pass Details

Date: 14 July 2020
Orbit: 777 x 796 km, 65.0° (Epoch: 14 August)

Event Time Altitude Azimuth Distance (km) Brightness Sun altitude
Rises 02:58:57 0° 320° (NW) 3,308 6.8 -7.3°
Reaches altitude 10° 03:01:26 10° 316° (NW) 2,375 6.0 -7.0°
Maximum altitude 03:06:43 53° 241° (WSW) 976 3.7 -6.3°
Drops below altitude 10° 03:11:59 10° 165° (SSE) 2,356 5.8 -5.6°
Sets 03:14:26 0° 161° (SSE) 3,279 6.6 -5.3°
